Location: Drocourt
(49.0571°N, 1.7669°E)
Time: 15:20:00
(UTC+00:00)

SR - Pass Details

Date: 01 May 2024
Orbit: 579 x 860 km, 66.7° (Epoch: 22 May)

Event Time Altitude Azimuth Distance (km) Brightness Sun altitude
Exits shadow 21:57:47 24° 92° (E) 1,526 ? -20.9°
Drops below altitude 10° 22:00:50 10° 57° (ENE) 2,224 ? -21.1°
Sets 22:03:25 0° 45° (NE) 3,098 ? -21.3°
